User: anonymous   Login
Location: Sternwarte Stuttgart
(48.7670°N, 9.1830°E)
Time: 18:27:25
(UTC+02:00)
Language:

SMAP - Orbit

View from above orbital plane
View from above orbital plane
View from above satellite
View from above satellite

Ground track
Ground track

The orbit data is extracted from the following two-line orbital elements,

1 40376U 15003A   19287.48161480  .00000058  00000-0  20195-4 0  9992
2 40376  98.1252 292.6661 0001830  60.1541 299.9850 14.63387598251105
Epoch (UTC): 14 October 2019 11:33:31
Eccentricity: 0.0001830
inclination: 98.1252°
perigee height: 681 km
apogee height: 683 km
right ascension of ascending node: 292.6661°
argument of perigee: 60.1541°
revolutions per day: 14.63387598
mean anomaly at epoch: 299.9850°
orbit number at epoch: 25110

The dashed part of the orbit path shows where the satellite is in the earth's shadow,  

DLR